Weather History for Victoria, BC

Change the Weather History Date:

Tuesday, November 15, 2011

  Actual Average Record
Temperature  
Mean Temperature 37 °F -  
Max Temperature 47 °F 46 °F 59 °F (1998)
Min Temperature 27 °F 34 °F 28 °F (2011)
Degree Days  
Heating Degree Days 28    
Moisture  
Dew Point 30 °F    
Average Humidity 80    
Maximum Humidity 93    
Minimum Humidity 54    
Precipitation  
Precipitation 0.00 in 0.19 in - ()
Sea Level Pressure  
Sea Level Pressure 30.26 in    
Wind  
Wind Speed 4 mph ()    
Max Wind Speed 8 mph    
Max Gust Speed -    
Averages and records for this station are not official NWS values.
T = Trace of Precipitation, MM = Missing Value Source: Averaged Metar Reports

Daily Weather History Graph

Daily Weather History Graph

Search for Another Location

Airport:

Trip Planner

Search our weather history database for the weather conditions in past years. The results will help you decide how hot, cold, wet, or windy it might be!

Date:

Astronomy

Nov. 15, 2011 Rise Set
Actual Time 7:21 AM PST 4:34 PM PST
Civil Twilight 6:47 AM PST 5:08 PM PST
Nautical Twilight 6:09 AM PST 5:46 PM PST
Astronomical Twilight 5:32 AM PST 6:23 PM PST
Moon 8:48 PM PST (11/15) 11:27 AM PST (11/15)
Length of Visible Light 10h 21m
Length of Day
9h 12m
Waning Gibbous, 78% of the Moon is Illuminated
Nov 15
Waning Gibbous
Nov 18
Last Quarter
Nov 24
New
Dec 2
First Quarter
Dec 10
Full

Hourly Weather History & Observations

Time (PST) Temp. Windchill Dew Point Humidity Pressure Visibility Wind Dir Wind Speed Gust Speed Precip Events Conditions
12:00 AM 32.0 °F 25.6 °F 28.4 °F 87% 30.13 in 30.0 mi West 6.9 mph - N/A   Partly Cloudy
1:00 AM 32.0 °F 26.4 °F 28.4 °F 87% 30.14 in 30.0 mi WSW 5.8 mph - N/A   Partly Cloudy
2:00 AM 30.2 °F 25.4 °F 26.6 °F 86% 30.15 in 30.0 mi West 4.6 mph - N/A   Partly Cloudy
3:00 AM 30.2 °F 26.7 °F 26.6 °F 86% 30.17 in 30.0 mi NW 3.5 mph - N/A   Partly Cloudy
4:00 AM 29 °F - 27 °F 89% 30.18 in 28 mi WSW 6.9 mph - -  
4:00 AM 28.4 °F 21.2 °F 26.6 °F 93% 30.18 in 30.0 mi WNW 6.9 mph - N/A   Clear
5:00 AM 30.2 °F 24.3 °F 26.6 °F 86% 30.19 in 30.0 mi West 5.8 mph - N/A   Partly Cloudy
6:00 AM 32.0 °F 28.7 °F 28.4 °F 87% 30.21 in 30.0 mi SW 3.5 mph - N/A   Clear
7:00 AM 30.2 °F 25.4 °F 28.4 °F 93% 30.22 in 30.0 mi SW 4.6 mph - N/A   Partly Cloudy
8:00 AM 30.2 °F 26.7 °F 28.4 °F 93% 30.25 in 30.0 mi WSW 3.5 mph - N/A   Partly Cloudy
9:00 AM 35.6 °F 29.2 °F 32.0 °F 87% 30.27 in 30.0 mi West 8.1 mph - N/A   Partly Cloudy
10:00 AM 40 °F - 33 °F 67% 30.29 in 28 mi West 5.8 mph - -   Scattered Clouds
10:00 AM 39.2 °F 35.9 °F 32.0 °F 75% 30.29 in 30.0 mi West 4.6 mph - N/A   Partly Cloudy
11:00 AM 42.8 °F 40.1 °F 32.0 °F 66% 30.30 in 30.0 mi West 4.6 mph - N/A   Partly Cloudy
12:00 PM 44.6 °F - 33.8 °F 66% 30.30 in 30.0 mi Calm Calm - N/A   Partly Cloudy
1:00 PM 44.6 °F 42.2 °F 32.0 °F 61% 30.30 in 30.0 mi East 4.6 mph - N/A   Partly Cloudy
2:00 PM 46.4 °F 44.3 °F 32.0 °F 57% 30.30 in 30.0 mi East 4.6 mph - N/A   Partly Cloudy
3:00 PM 46.4 °F 43.5 °F 32.0 °F 57% 30.30 in 30.0 mi East 5.8 mph - N/A   Partly Cloudy
4:00 PM 42 °F - 31 °F 54% 30.30 in 28 mi SSE 3.5 mph - -   Scattered Clouds
4:00 PM 42.8 °F 41.1 °F 30.2 °F 61% 30.30 in 30.0 mi SSE 3.5 mph - N/A   Partly Cloudy
4:29 PM 35.6 °F - - N/A% - 30.0 mi SSE 2.3 mph - N/A   Partly Cloudy
5:00 PM 35.6 °F - 30.2 °F 81% 30.31 in 30.0 mi South 2.3 mph - N/A   Partly Cloudy
6:00 PM 33.8 °F - 28.4 °F 81% 30.31 in 30.0 mi Calm Calm - N/A   Partly Cloudy
7:00 PM 32.0 °F 28.7 °F 28.4 °F 87% 30.32 in 30.0 mi SW 3.5 mph - N/A   Partly Cloudy
8:00 PM 30.2 °F 26.7 °F 28.4 °F 93% 30.32 in 30.0 mi West 3.5 mph - N/A   Partly Cloudy
9:00 PM 33.8 °F 28.6 °F 32.0 °F 93% 30.31 in 30.0 mi SW 5.8 mph - N/A   Partly Cloudy
10:00 PM 30 °F - 27 °F 85% 30.30 in 28 mi SW 4.6 mph - -   Scattered Clouds
10:00 PM 30.2 °F 25.4 °F 26.6 °F 86% 30.30 in 30.0 mi SW 4.6 mph - N/A   Mostly Cloudy
11:00 PM 32.0 °F 26.4 °F 30.2 °F 93% 30.30 in 30.0 mi WSW 5.8 mph - N/A   Mostly Cloudy